EW5171 Weather Reports


Display with metric or nautical units.
time (UTC)temp
F
wind
direction
speed
MPH
gust
MPH
rain 1hr
in
rain 24hr
in
rain mn
in
humidity
%
barometer
mb
20260906103003 63 149 1.0 11.0 0.00 0.02 0.01 68 1021.7
20260906102502 63 198 2.0 11.0 0.00 0.02 0.01 67 1021.7
20260906102002 63 183 3.0 11.0 0.00 0.02 0.01 70 1021.6
20260906101501 63 221 3.0 11.0 0.00 0.02 0.01 69 1021.5
20260906101001 63 223 3.0 14.0 0.00 0.02 0.01 68 1021.5
20260906100602 63 300 3.0 17.0 0.00 0.02 0.01 67 1021.3
20260906100100 64 239 4.0 17.0 0.00 0.02 0.01 68 1021.3
20260906095559 64 288 5.0 11.0 0.00 0.02 0.01 68 1021.2
20260906095058 64 214 3.0 10.0 0.00 0.02 0.01 68 1021.0
20260906094557 64 341 4.0 9.0 0.00 0.02 0.01 69 1021.0
20260906094055 64 296 4.0 9.0 0.00 0.02 0.01 69 1020.9
20260906093555 64 170 4.0 11.0 0.00 0.02 0.01 70 1020.9
20260906093053 64 209 4.0 11.0 0.00 0.02 0.01 70 1021.0
20260906092552 63 289 2.0 11.0 0.00 0.02 0.01 70 1020.8
20260906092052 63 30 4.0 13.0 0.00 0.02 0.01 69 1020.7
20260906091551 63 68 4.0 14.0 0.00 0.02 0.01 70 1020.9
20260906091050 63 289 3.0 14.0 0.00 0.02 0.01 71 1020.8
20260906090548 63 159 4.0 11.0 0.00 0.02 0.01 73 1020.6
20260906090048 62 283 5.0 10.0 0.00 0.02 0.01 72 1020.6
20260906085551 62 271 3.0 10.0 0.00 0.02 0.01 73 1020.6
20260906085047 62 272 4.0 12.0 0.00 0.02 0.01 73 1020.5
20260906084546 62 290 2.0 14.0 0.00 0.02 0.01 74 1020.5
20260906084045 62 123 4.0 14.0 0.00 0.02 0.01 75 1020.5
20260906083543 61 268 3.0 14.0 0.00 0.02 0.01 76 1020.4
20260906083042 61 263 4.0 14.0 0.00 0.02 0.01 76 1020.4
20260906082541 61 266 3.0 14.0 0.00 0.02 0.01 77 1020.2
20260906082040 61 289 2.0 11.0 0.00 0.02 0.01 77 1020.1
20260906081542 61 298 3.0 11.0 0.00 0.02 0.01 77 1020.1
20260906081040 61 184 3.0 14.0 0.00 0.02 0.01 78 1020.1
20260906080538 61 161 3.0 14.0 0.00 0.02 0.01 78 1020.1
20260906080037 61 277 4.0 14.0 0.00 0.02 0.01 78 1019.9
20260906075535 60 179 3.0 10.0 0.00 0.02 0.01 79 1020.0
20260906075036 60 15 3.0 10.0 0.00 0.02 0.01 79 1020.0
20260906074534 60 275 2.0 11.0 0.00 0.02 0.01 80 1020.0
20260906074032 60 179 2.0 10.0 0.00 0.02 0.01 81 1019.9
20260906073536 60 153 1.0 18.0 0.00 0.02 0.01 81 1019.9
20260906073030 59 273 5.0 18.0 0.00 0.02 0.01 81 1019.8
20260906072529 59 318 1.0 10.0 0.00 0.02 0.01 82 1019.7
20260906072029 59 26 3.0 13.0 0.00 0.02 0.01 81 1019.7
20260906071531 59 60 3.0 13.0 0.00 0.02 0.01 82 1019.5
20260906071025 58 253 4.0 12.0 0.00 0.02 0.01 83 1019.5
20260906070527 58 288 6.0 15.0 0.00 0.02 0.01 83 1019.4
20260906070023 58 262 4.0 15.0 0.00 0.02 0.01 84 1019.4
20260906065522 58 246 2.0 11.0 0.00 0.02 0.01 84 1019.4
20260906065021 58 160 3.0 13.0 0.00 0.02 0.01 85 1019.3
20260906064526 57 277 2.0 13.0 0.00 0.02 0.01 86 1019.3
20260906064019 57 262 3.0 14.0 0.00 0.02 0.01 86 1019.3
20260906063517 57 252 3.0 14.0 0.00 0.02 0.01 87 1019.2
20260906063016 56 198 3.0 12.0 0.00 0.02 0.01 87 1019.2
20260906062515 56 163 2.0 7.0 0.00 0.02 0.01 88 1019.1
20260906062014 56 190 2.0 7.0 0.00 0.02 0.01 88 1019.1
20260906061514 56 310 2.0 8.0 0.00 0.02 0.01 88 1019.1
20260906061014 56 331 3.0 8.0 0.00 0.02 0.01 89 1019.1
20260906060513 55 132 2.0 15.0 0.00 0.02 0.01 89 1019.1
20260906060012 55 269 3.0 15.0 0.00 0.02 0.01 89 1019.0
20260906055512 55 328 3.0 9.0 0.00 0.02 0.01 90 1019.1
20260906055013 55 162 2.0 8.0 0.00 0.02 0.01 90 1019.0
20260906054510 55 242 2.0 7.0 0.00 0.02 0.01 90 1018.9
20260906054008 54 217 3.0 10.0 0.00 0.02 0.01 90 1018.8
20260906053511 54 232 2.0 10.0 0.00 0.02 0.01 90 1018.7
20260906053006 54 205 3.0 12.0 0.00 0.02 0.01 91 1018.6
20260906052505 54 286 1.0 12.0 0.00 0.02 0.01 91 1018.5
20260906052005 54 212 3.0 8.0 0.00 0.02 0.01 91 1018.5
20260906051504 54 176 1.0 8.0 0.00 0.02 0.01 91 1018.6
20260906051104 54 192 1.0 8.0 0.00 0.02 0.01 91 1018.5
20260906050501 54 210 2.0 8.0 0.00 0.02 0.01 91 1018.4
20260906050003 54 166 1.0 9.0 0.00 0.02 0.01 91 1018.3
20260906045600 54 256 3.0 9.0 0.00 0.02 0.01 91 1018.3
20260906045059 54 288 2.0 12.0 0.00 0.02 0.01 91 1018.3
20260906044559 54 281 3.0 12.0 0.00 0.02 0.01 91 1018.2
20260906044102 54 199 1.0 9.0 0.00 0.02 0.01 91 1018.1
20260906043557 54 232 3.0 9.0 0.00 0.02 0.01 91 1018.2
20260906043102 54 242 3.0 8.0 0.00 0.02 0.01 91 1018.0
20260906042556 54 142 2.0 9.0 0.00 0.02 0.01 91 1018.1
20260906042055 54 299 2.0 9.0 0.00 0.02 0.01 91 1018.0
20260906041555 54 207 2.0 10.0 0.00 0.02 0.01 91 1017.9
20260906041054 54 301 3.0 10.0 0.00 0.02 0.01 91 1017.8
20260906040553 54 281 3.0 9.0 0.00 0.02 0.01 91 1017.9
20260906040053 54 288 2.0 9.0 0.00 0.02 0.01 90 1017.8
20260906035552 54 27 4.0 13.0 0.00 0.02 0.01 90 1017.8
20260906035052 54 286 2.0 13.0 0.00 0.02 0.01 90 1017.6
20260906034558 54 231 3.0 8.0 0.00 0.02 0.01 90 1017.5
20260906034050 54 173 2.0 8.0 0.00 0.02 0.01 90 1017.5
20260906033550 54 280 1.0 8.0 0.00 0.02 0.01 90 1017.4
20260906033048 54 272 2.0 11.0 0.00 0.02 0.01 90 1017.3
20260906032547 54 266 1.0 11.0 0.00 0.02 0.01 90 1017.3
20260906032047 54 194 2.0 7.0 0.00 0.02 0.01 90 1017.2
20260906031608 54 277 1.0 9.0 0.00 0.02 0.01 90 1017.1
20260906031046 54 281 2.0 10.0 0.00 0.02 0.01 90 1017.1
20260906030545 54 206 2.0 11.0 0.00 0.02 0.01 90 1017.0
20260906030044 54 330 2.0 6.0 0.00 0.02 0.01 89 1016.9
20260906025543 54 157 1.0 6.0 0.00 0.02 0.01 89 1016.9
20260906025043 54 182 2.0 6.0 0.00 0.02 0.01 89 1016.9
20260906024549 54 272 2.0 6.0 0.00 0.02 0.01 89 1016.9
20260906024041 54 146 1.0 8.0 0.00 0.02 0.01 89 1016.8
20260906023541 54 321 3.0 8.0 0.00 0.02 0.01 88 1016.8
20260906023054 54 192 2.0 8.0 0.00 0.02 0.01 88 1016.8
20260906022539 55 163 2.0 8.0 0.00 0.02 0.01 88 1016.8
20260906022041 55 261 3.0 9.0 0.00 0.02 0.01 88 1016.8
20260906021539 55 18 2.0 11.0 0.00 0.02 0.01 88 1016.7
20260906021040 55 276 1.0 9.0 0.00 0.02 0.01 88 1016.7
20260906020538 55 277 2.0 9.0 0.00 0.02 0.01 89 1016.6
20260906020048 55 280 1.0 8.0 0.00 0.02 0.01 88 1016.6
20260906015536 55 224 2.0 9.0 0.00 0.02 0.01 88 1016.5
20260906015036 55 275 2.0 9.0 0.00 0.02 0.01 88 1016.5
20260906014535 55 211 3.0 7.0 0.00 0.02 0.01 88 1016.5
20260906014035 55 209 2.0 9.0 0.00 0.02 0.01 88 1016.4
20260906013534 55 290 1.0 9.0 0.00 0.02 0.01 88 1016.4
20260906013034 55 215 3.0 9.0 0.00 0.02 0.01 88 1016.4
20260906012532 55 289 3.0 9.0 0.00 0.02 0.01 88 1016.3
20260906012032 55 142 2.0 8.0 0.00 0.02 0.01 88 1016.3
20260906011531 55 163 2.0 10.0 0.00 0.02 0.01 88 1016.3
20260906011032 55 221 2.0 11.0 0.00 0.02 0.01 88 1016.2
20260906010530 55 234 3.0 9.0 0.00 0.02 0.01 88 1016.1
20260906010031 55 163 2.0 12.0 0.00 0.02 0.01 88 1016.1
20260906005529 55 5 3.0 12.0 0.00 0.02 0.01 88 1016.0
20260906005029 55 89 2.0 8.0 0.00 0.02 0.01 88 1016.0
20260906004530 55 188 3.0 8.0 0.00 0.02 0.01 88 1016.0
20260906004027 55 138 1.0 8.0 0.00 0.02 0.01 88 1016.0
20260906003527 55 100 2.0 9.0 0.00 0.02 0.01 88 1015.8
20260906003026 55 161 2.0 9.0 0.00 0.02 0.01 88 1015.7
20260906002527 55 43 2.0 9.0 0.00 0.02 0.01 88 1015.7
20260906002025 55 279 3.0 9.0 0.00 0.02 0.01 88 1015.7
20260906001524 55 188 2.0 10.0 0.00 0.02 0.01 88 1015.6
20260906001025 55 136 1.0 9.0 0.00 0.02 0.01 87 1015.6
20260906000623 55 265 2.0 9.0 0.00 0.02 0.01 87 1015.4
20260906000021 55 284 2.0 9.0 0.00 0.02 0.01 87 1015.3
20260905235519 55 320 3.0 10.0 0.00 0.02 0.01 87 1015.2
20260905235024 55 61 3.0 10.0 0.00 0.02 0.01 87 1015.2
20260905234518 55 302 4.0 11.0 0.00 0.02 0.01 87 1015.2
20260905234017 55 327 3.0 9.0 0.01 0.02 0.01 87 1015.0
20260905233516 55 276 2.0 8.0 0.01 0.02 0.01 87 1015.0
20260905233017 55 296 3.0 9.0 0.01 0.02 0.01 87 1014.8
20260905232514 55 212 2.0 9.0 0.01 0.02 0.01 87 1014.8
20260905232013 56 240 2.0 9.0 0.01 0.02 0.01 86 1014.7
20260905231513 56 233 3.0 12.0 0.01 0.02 0.01 86 1014.6
20260905231012 56 277 5.0 12.0 0.01 0.02 0.01 86 1014.6
20260905230511 56 311 2.0 11.0 0.01 0.02 0.01 86 1014.6
20260905230010 56 209 1.0 9.0 0.01 0.02 0.01 86 1014.5
20260905225510 56 272 3.0 9.0 0.01 0.02 0.01 85 1014.5
20260905225007 56 262 2.0 9.0 0.01 0.02 0.01 85 1014.4
20260905224507 56 312 2.0 12.0 0.01 0.02 0.01 84 1014.3
20260905224008 56 258 3.0 12.0 0.00 0.01 0.00 84 1014.2
20260905223508 56 281 2.0 17.0 0.00 0.01 0.00 84 1014.1
20260905223003 56 279 4.0 17.0 0.00 0.01 0.00 84 1014.1
20260905222503 56 155 3.0 12.0 0.00 0.01 0.00 83 1014.1
20260905222002 57 120 2.0 12.0 0.00 0.01 0.00 83 1014.0
20260905221501 57 298 1.0 9.0 0.00 0.01 0.00 83 1013.9
20260905221101 57 231 4.0 10.0 0.00 0.01 0.00 83 1013.7
20260905220559 57 182 2.0 11.0 0.00 0.01 0.00 83 1013.7
20260905220059 57 13 2.0 11.0 0.00 0.01 0.00 82 1013.7
20260905215557 57 267 5.0 14.0 0.00 0.01 0.01 82 1013.6
20260905215058 57 257 4.0 14.0 0.00 0.01 0.01 82 1013.5
20260905214604 57 180 4.0 12.0 0.00 0.01 0.01 82 1013.4
20260905214057 58 296 4.0 13.0 0.00 0.01 0.01 81 1013.4
20260905213556 58 197 4.0 13.0 0.00 0.01 0.01 81 1013.3
20260905213055 58 290 2.0 9.0 0.00 0.01 0.01 81 1013.3
20260905212557 58 179 4.0 12.0 0.00 0.01 0.01 81 1013.1
20260905212053 58 238 2.0 12.0 0.00 0.01 0.01 81 1013.2
20260905211554 58 260 4.0 11.0 0.00 0.01 0.01 81 1012.9
20260905211054 58 275 4.0 14.0 0.00 0.01 0.01 81 1013.0
20260905210552 58 277 2.0 14.0 0.00 0.01 0.01 81 1012.8
20260905210104 58 267 4.0 12.0 0.00 0.01 0.01 81 1012.8
20260905205552 58 211 4.0 11.0 0.00 0.01 0.01 81 1012.8
20260905205052 58 185 3.0 13.0 0.00 0.01 0.01 81 1012.8
20260905204551 58 186 4.0 16.0 0.00 0.01 0.01 81 1012.7
20260905204051 58 276 4.0 11.0 0.00 0.01 0.01 81 1012.7
20260905203551 58 183 3.0 13.0 0.00 0.01 0.01 81 1012.6
20260905203050 58 43 5.0 14.0 0.00 0.01 0.01 81 1012.4
20260905202549 58 202 4.0 13.0 0.00 0.01 0.01 81 1012.4
20260905202048 57 306 4.0 11.0 0.00 0.01 0.01 82 1012.3
20260905201548 57 190 4.0 11.0 0.00 0.01 0.01 82 1012.3
20260905201047 57 308 5.0 12.0 0.00 0.01 0.01 82 1012.3
20260905200546 57 242 4.0 11.0 0.00 0.01 0.01 83 1012.1
20260905200053 57 275 2.0 9.0 0.00 0.01 0.01 83 1012.0
20260905195550 57 294 3.0 10.0 0.00 0.01 0.01 83 1012.1
20260905195045 57 271 2.0 10.0 0.00 0.01 0.01 82 1012.1
20260905194547 57 202 3.0 13.0 0.00 0.01 0.01 82 1011.8
20260905194044 57 292 3.0 13.0 0.00 0.01 0.01 82 1011.9
20260905193543 57 238 4.0 13.0 0.00 0.01 0.01 82 1011.8
20260905193044 57 168 2.0 11.0 0.00 0.01 0.01 82 1011.8
20260905192542 57 311 3.0 15.0 0.00 0.01 0.01 82 1011.7
20260905192040 57 209 5.0 15.0 0.00 0.01 0.01 82 1011.6
20260905191542 57 198 3.0 10.0 0.00 0.01 0.01 82 1011.4
20260905191040 57 29 4.0 13.0 0.00 0.01 0.01 82 1011.3
20260905190540 58 170 4.0 14.0 0.00 0.01 0.01 82 1011.3
20260905190046 57 306 4.0 14.0 0.00 0.01 0.01 82 1011.2
20260905185543 57 360 4.0 14.0 0.00 0.02 0.01 82 1011.3
20260905185039 58 254 4.0 15.0 0.00 0.02 0.01 82 1011.2
20260905184540 58 55 4.0 11.0 0.00 0.02 0.01 81 1011.1
20260905184041 58 185 5.0 11.0 0.00 0.02 0.01 81 1011.1
20260905183538 58 324 4.0 15.0 0.00 0.02 0.01 80 1011.0
20260905183038 58 190 4.0 18.0 0.00 0.02 0.01 80 1011.0
20260905182536 58 243 4.0 18.0 0.00 0.02 0.01 79 1010.8
20260905182040 58 291 3.0 16.0 0.00 0.02 0.01 79 1010.8
20260905181535 58 261 5.0 16.0 0.00 0.02 0.01 78 1010.7
20260905181034 58 275 4.0 16.0 0.00 0.02 0.01 78 1010.6
20260905180533 58 298 5.0 14.0 0.00 0.02 0.01 78 1010.3
20260905180133 58 182 5.0 14.0 0.00 0.02 0.01 78 1010.2
20260905175532 59 273 5.0 16.0 0.00 0.02 0.01 77 1010.2
20260905175031 59 269 5.0 16.0 0.00 0.02 0.01 77 1010.1
20260905174530 59 242 6.0 14.0 0.00 0.02 0.01 76 1010.0
20260905174030 60 192 4.0 15.0 0.00 0.02 0.01 76 1009.9
20260905173531 60 273 5.0 23.0 0.00 0.02 0.01 76 1009.9
20260905173030 59 300 5.0 23.0 0.00 0.02 0.01 75 1010.0
20260905172529 59 5 5.0 14.0 0.00 0.02 0.01 75 1009.9
20260905172030 59 321 4.0 16.0 0.00 0.02 0.01 75 1009.9
20260905171545 60 281 4.0 16.0 0.00 0.02 0.01 75 1010.0
20260905171028 60 5 4.0 16.0 0.00 0.02 0.01 74 1009.7
20260905170528 60 246 3.0 15.0 0.00 0.02 0.01 74 1009.7
20260905170028 60 205 5.0 16.0 0.00 0.02 0.01 74 1009.6
20260905165528 60 268 4.0 18.0 0.00 0.02 0.01 74 1009.5
20260905165027 60 302 6.0 18.0 0.00 0.02 0.01 75 1009.6
20260905164526 60 259 5.0 17.0 0.00 0.02 0.01 74 1009.4
20260905164025 60 251 5.0 17.0 0.00 0.02 0.01 74 1009.4
20260905163525 60 205 3.0 11.0 0.00 0.02 0.01 73 1009.2
20260905163025 60 225 3.0 19.0 0.00 0.02 0.01 73 1009.2
20260905162523 60 281 4.0 19.0 0.00 0.02 0.01 74 1009.0
20260905162123 60 247 5.0 20.0 0.00 0.02 0.01 73 1009.1
20260905161525 61 331 7.0 20.0 0.00 0.02 0.01 72 1009.0
20260905161025 61 313 4.0 17.0 0.00 0.02 0.01 72 1008.9
20260905160521 61 69 6.0 15.0 0.00 0.02 0.01 71 1008.8
20260905160034 61 239 5.0 14.0 0.00 0.02 0.01 71 1008.9
20260905155524 61 279 4.0 24.0 0.00 0.02 0.01 70 1008.7
20260905155020 61 254 4.0 24.0 0.00 0.02 0.01 70 1008.8
20260905154520 62 190 4.0 19.0 0.00 0.02 0.01 69 1008.5
20260905154021 62 254 7.0 19.0 0.00 0.02 0.01 69 1008.6
20260905153519 62 84 5.0 20.0 0.00 0.02 0.01 69 1008.4
20260905153022 62 284 7.0 20.0 0.00 0.02 0.01 68 1008.4
20260905152517 62 305 3.0 13.0 0.00 0.02 0.01 69 1008.4
20260905152018 62 213 3.0 18.0 0.00 0.02 0.01 68 1008.4
20260905151516 62 336 5.0 15.0 0.00 0.02 0.01 67 1008.3
20260905151016 63 242 6.0 15.0 0.00 0.02 0.01 67 1008.2
20260905150514 63 279 6.0 15.0 0.00 0.02 0.01 68 1008.2
20260905150014 62 300 4.0 14.0 0.00 0.02 0.01 68 1008.2
20260905145519 62 291 6.0 14.0 0.00 0.02 0.01 68 1008.1
20260905145114 63 271 4.0 14.0 0.00 0.02 0.01 70 1008.2
20260905144524 63 280 4.0 16.0 0.00 0.02 0.01 69 1008.0
20260905144018 63 220 4.0 17.0 0.00 0.02 0.01 70 1008.0
20260905143516 63 182 4.0 17.0 0.00 0.02 0.01 69 1008.0
20260905143013 63 217 5.0 20.0 0.00 0.02 0.01 69 1008.0
20260905142514 63 273 6.0 20.0 0.00 0.02 0.01 70 1008.2
20260905142012 63 209 4.0 20.0 0.00 0.02 0.01 70 1008.1
20260905141514 63 297 6.0 20.0 0.00 0.02 0.01 69 1008.0
20260905141011 64 195 5.0 17.0 0.00 0.02 0.01 66 1007.9
20260905140512 65 170 2.0 12.0 0.00 0.02 0.01 67 1007.7
20260905140018 65 105 3.0 12.0 0.00 0.02 0.01 66 1007.7
20260905135509 65 279 6.0 13.0 0.00 0.02 0.01 65 1007.6
20260905135009 65 227 6.0 14.0 0.00 0.02 0.01 65 1007.6
20260905134508 65 329 3.0 17.0 0.00 0.02 0.01 67 1007.5
20260905134008 65 232 4.0 17.0 0.00 0.02 0.01 64 1007.5
20260905133507 66 277 5.0 20.0 0.00 0.02 0.01 65 1007.6
20260905133008 66 301 5.0 20.0 0.00 0.02 0.01 65 1007.3
20260905132504 65 273 6.0 16.0 0.00 0.02 0.01 66 1007.2
20260905132003 65 194 7.0 16.0 0.00 0.02 0.01 66 1007.3
20260905131502 65 180 6.0 16.0 0.00 0.02 0.01 68 1007.3
20260905131002 65 273 6.0 13.0 0.01 0.02 0.01 67 1007.3
20260905130503 65 334 3.0 16.0 0.01 0.02 0.01 69 1007.2
20260905130101 64 300 4.0 16.0 0.01 0.02 0.01 71 1007.2
20260905125602 64 256 2.0 13.0 0.01 0.02 0.01 71 1007.1
20260905125100 64 309 5.0 13.0 0.01 0.02 0.01 72 1007.2
20260905124600 63 289 3.0 15.0 0.01 0.02 0.01 76 1007.1
20260905124058 62 188 2.0 15.0 0.01 0.02 0.01 77 1007.1
20260905123558 62 298 5.0 15.0 0.01 0.02 0.01 78 1007.2
20260905123104 61 292 5.0 15.0 0.01 0.02 0.01 81 1007.3
20260905122557 61 308 3.0 12.0 0.01 0.02 0.01 83 1007.2
20260905122100 62 176 4.0 16.0 0.01 0.02 0.01 79 1007.2
20260905121600 63 227 5.0 16.0 0.01 0.02 0.01 73 1007.2
20260905121100 65 297 4.0 18.0 0.01 0.02 0.01 70 1007.1
20260905120555 64 209 3.0 15.0 0.00 0.02 0.00 71 1006.9
20260905120106 64 190 4.0 15.0 0.00 0.02 0.00 70 1006.8
20260905115554 64 258 3.0 17.0 0.00 0.02 0.00 71 1006.7
20260905115157 63 229 4.0 17.0 0.00 0.02 0.00 71 1006.6
20260905114607 63 293 5.0 16.0 0.00 0.02 0.00 73 1006.6
20260905114054 63 270 5.0 16.0 0.00 0.02 0.00 71 1006.7
20260905113553 64 290 4.0 12.0 0.00 0.02 0.00 72 1006.6
20260905113057 64 305 3.0 15.0 0.00 0.02 0.00 72 1006.6
20260905112550 63 264 4.0 12.0 0.00 0.02 0.00 73 1006.7
20260905112049 63 288 4.0 16.0 0.00 0.02 0.00 75 1006.5
20260905111634 62 227 3.0 16.0 0.00 0.02 0.00 77 1006.6
20260905111047 62 41 5.0 17.0 0.00 0.02 0.00 79 1006.5
20260905110545 61 161 5.0 17.0 0.00 0.02 0.00 79 1006.5
20260905110045 61 140 5.0 12.0 0.00 0.02 0.00 78 1006.4
20260905105546 61 234 4.0 12.0 0.00 0.02 0.00 78 1006.4
20260905105045 61 195 4.0 10.0 0.00 0.02 0.00 78 1006.4
20260905104544 61 198 3.0 10.0 0.00 0.02 0.00 76 1006.2
20260905104043 62 257 3.0 9.0 0.00 0.02 0.00 77 1006.2
20260905103544 61 251 2.0 16.0 0.00 0.02 0.00 77 1006.2